This is the latest recevied weather packets stored in our database for station/object NC4M. If no packets are shown the sender has not sent any weather packets the latest 10 day(s).
| Time | Temp. | Humidity | Pressure | Rain* | Wind** | Luminosity | Snow |
|---|---|---|---|---|---|---|---|
| 1777892047 | 13.89° C | 69% | 1008.9 hPa | 0 mm | - | 0 W/m² | - |
| 1777891745 | 13.89° C | 71% | 1008.8 hPa | 0 mm | - | 0 W/m² | - |
| 1777891440 | 13.89° C | 69% | 1008.7 hPa | 0 mm | - | 0 W/m² | - |
| 1777891136 | 13.89° C | 70% | 1008.7 hPa | 0 mm | - | 0 W/m² | - |
| 1777890832 | 13.89° C | 68% | 1009.1 hPa | 0 mm | - | 0 W/m² | - |
| 1777890528 | 14.44° C | 71% | 1008.6 hPa | 0 mm | - | 0 W/m² | - |
| 1777890223 | 14.44° C | 69% | 1008.8 hPa | 0 mm | - | 0 W/m² | - |
| 1777889920 | 14.44° C | 67% | 1008.9 hPa | 0 mm | - | 0 W/m² | - |
| 1777889618 | 14.44° C | 66% | 1008.7 hPa | 0 mm | - | 0 W/m² | - |
| 1777889315 | 15° C | 68% | 1008.9 hPa | 0 mm | - | 0 W/m² | - |
| 1777889012 | 15° C | 68% | 1008.8 hPa | 0 mm | - | 0 W/m² | - |
| 1777888710 | 15° C | 66% | 1008.8 hPa | 0 mm | - | 0 W/m² | - |
| 1777888405 | 15° C | 67% | 1008.7 hPa | 0 mm | - | 0 W/m² | - |
| 1777888102 | 15° C | 66% | 1008.9 hPa | 0 mm | - | 0 W/m² | - |
| 1777887799 | 15° C | 67% | 1008.8 hPa | 0 mm | - | 0 W/m² | - |
| 1777887496 | 15° C | 66% | 1008.9 hPa | 0 mm | - | 0 W/m² | - |
| 1777887192 | 15° C | 68% | 1008.9 hPa | 0 mm | - | 0 W/m² | - |
| 1777886888 | 15° C | 66% | 1008.8 hPa | 0 mm | - | 0 W/m² | - |
| 1777886583 | 15° C | 65% | 1008.8 hPa | 0 mm | - | 0 W/m² | - |
| 1777886281 | 15° C | 66% | 1008.8 hPa | 0 mm | - | 0 W/m² | - |
| 1777885979 | 15° C | 64% | 1009 hPa | 0 mm | - | 0 W/m² | - |
| 1777885678 | 15° C | 65% | 1009.1 hPa | 0 mm | - | 0 W/m² | - |
| 1777885375 | 15.56° C | 64% | 1009 hPa | 0 mm | - | 0 W/m² | - |
| 1777885074 | 15.56° C | 64% | 1009 hPa | 0 mm | - | 0 W/m² | - |
| 1777884769 | 15.56° C | 65% | 1008.9 hPa | 0 mm | - | 0 W/m² | - |
* Rain latest hour (hover to see other rain measurements)
** Current wind speed in m/s (hover to see current wind gust speed)